Location: San Martino di Castrozza
(46.2667°N, 11.8000°E)
Time: 14:55:38
(UTC+00:00)

CZ-3B R/B - Pass Details

Date: 23 April 2021
Orbit: 304 x 17371 km, 54.8° (Epoch: 12 May)

Event Time Altitude Azimuth Distance (km) Brightness Sun altitude
Exits shadow 02:07:21 21° 217° (SW) 6,799 6.7 -19.1°
Maximum altitude 02:21:38 69° 143° (SE) 1,756 4.2 -17.3°
Drops below altitude 10° 02:26:55 10° 61° (ENE) 2,464 6.4 -16.6°
Sets 02:28:20 0° 58° (ENE) 3,033 7.4 -16.4°
